Regional Weather Roundup
Issued by NWS

Home | Current Version | Previous Version | Text Only | Print | Product List | Glossary On
Versions: 1 2 3 4 5 6 7 8 9 10 11 12 13 14 15 16 17 18 19 20 21 22 23 24 25 26 27 28 29 30 31 32 33 34 35 36 37 38 39 40 41 42 43 44 45 46 47 48 49 50
000
ASUS43 KMKX 221200
RWRWI

WISCONSIN REGIONAL WEATHER ROUNDUP
NATIONAL WEATHER SERVICE MILWAUKEE/SULLIVAN WI
600 AM CST SAT NOV 22 2014

NOTE: "FAIR" INDICATES FEW OR NO CLOUDS BELOW 12,000 FEET WITH NO
SIGNIFICANT WEATHER AND/OR OBSTRUCTIONS TO VISIBILITY.

WIZ001-002-006>008-014>016-023>028-221300-
NORTHWEST WISCONSIN

CITY           SKY/WX    TMP DP  RH WIND       PRES   REMARKS
SUPERIOR ARPT  PTCLDY    30  27  89 SW9       29.71F WCI  22
ASHLAND        CLOUDY    34  29  82 SW13      29.72F WCI  25
6HR MIN TEMP:  30; 6HR MAX TEMP:  34;

HAYWARD        CLOUDY    34  30  85 SW13      29.74F WCI  25
6HR MIN TEMP:  28; 6HR MAX TEMP:  34;

SIREN          PTCLDY    35  31  87 SW8       29.75F WCI  28
CUMBERLAND     CLOUDY    32  32 100 SW10      29.77F FOG     WCI  24
RICE LAKE      CLOUDY    34  32  92 S7        29.80F FOG     WCI  28
CHETEK         CLOUDY    34  32  93 S7        29.79F FOG     WCI  28
LADYSMITH      CLOUDY    33  32  95 S7        29.81S FOG     WCI  27
6HR MIN TEMP:  29; 6HR MAX TEMP:  33;

EAU CLAIRE     CLOUDY    34  30  85 S13       29.81F WCI  25
MENOMONIE      CLOUDY    35  32  88 S10G18    29.82F FOG     WCI  28
NEW RICHMOND   CLOUDY    35  34  96 SW12      29.79S FOG     WCI  27
OSCEOLA        CLOUDY    36  35  98 S7        29.81S FOG     WCI  30
$$

WIZ003>005-009-010-017-018-221300-
NORTH CENTRAL WISCONSIN

CITY           SKY/WX    TMP DP  RH WIND       PRES   REMARKS
MANITOWISH WTR CLOUDY    30  30 100 SW14G21   29.74F FOG     WCI  19
ARBOR VITAE    CLOUDY    32  30  92 SW9       29.76F FOG     WCI  24
WOODRUFF       CLOUDY    32  30  92 SW9       29.76F FOG     WCI  24
RHINELANDER    CLOUDY    29  27  92 SW14      29.78F FOG     WCI  18
6HR MIN TEMP:  25; 6HR MAX TEMP:  29;

EAGLE RIVER    CLOUDY    28  27  93 SW13      29.76S FOG     WCI  18
LAND O LAKES   CLOUDY    30  28  92 SW8       29.75F FOG     WCI  23
PHILLIPS       CLOUDY    30  29  96 SW9       29.77F FOG     WCI  22
6HR MIN TEMP:  27; 6HR MAX TEMP:  30;

TOMAHAWK       CLOUDY    30  28  90 CALM      29.80F FOG
MEDFORD        CLOUDY    30  28  93 SW10      29.81F FOG     WCI  21
MERRILL        CLOUDY    31  29  91 SW9       29.82S FOG     WCI  23
$$

WIZ029-030-035-036-043>047-221300-
CENTRAL WISCONSIN

CITY           SKY/WX    TMP DP  RH WIND       PRES   REMARKS
WAUSAU         CLOUDY    32  27  81 SW10      29.83F WCI  24
6HR MIN TEMP:  28; 6HR MAX TEMP:  32;

MOSINEE        CLOUDY    30  30 100 SW15      29.84F FOG     WCI  19
MARSHFIELD     CLOUDY    32  28  85 SW10      29.83F WCI  24
6HR MIN TEMP:  30; 6HR MAX TEMP:  32;

STEVENS POINT  CLOUDY    30  27  86 SW12      29.86F WCI  21
WAUPACA        CLOUDY    34  29  82 SW8       29.89F WCI  28
WAUTOMA        CLOUDY    34  30  86 S8        29.91F WCI  27
WISC RAPIDS    CLOUDY    32  27  81 S10       29.88F WCI  24
6HR MIN TEMP:  31; 6HR MAX TEMP:  33;

CAMP DOUGLAS   CLOUDY    34  34 100 S13       29.88F WCI  25
$$

WIZ011>013-019>022-031-037>040-048>050-221300-
NORTHEAST WISCONSIN

CITY           SKY/WX    TMP DP  RH WIND       PRES   REMARKS
ANTIGO         CLOUDY    29  27  92 SW14      29.81F FOG     WCI  19
SHAWANO        CLOUDY    34  27  75 SW10      29.87F WCI  26
OCONTO         CLOUDY    33  26  76 SW10G17   29.86F WCI  24
STURGEON BAY   CLOUDY    34  25  69 SW16      29.87F WCI  23
6HR MIN TEMP:  28; 6HR MAX TEMP:  34;

GREEN BAY      CLOUDY    33  28  81 SW14      29.89F WCI  23
6HR MIN TEMP:  31; 6HR MAX TEMP:  33;

MANITOWOC      NOT AVBL
APPLETON       CLOUDY    32  27  80 SW14      29.90F WCI  22
CLINTONVILLE   CLOUDY    32  28  86 SW12      29.88F WCI  23
OSHKOSH        CLOUDY    33  28  81 SW13G21   29.91F HAZE    WCI  24
6HR MIN TEMP:  31; 6HR MAX TEMP:  33;

$$

WIZ032>034-041-042-053>061-221300-
SOUTHWEST WISCONSIN

CITY           SKY/WX    TMP DP  RH WIND       PRES   REMARKS
LA CROSSE      CLOUDY    34  32  92 S10       29.89S FOG     WCI  26
6HR MIN TEMP:  34; 6HR MAX TEMP:  36;

SPARTA         CLOUDY    33  32  95 S7        29.90S FOG     WCI  27
VIROQUA        CLOUDY    32  32 100 SW12      29.90S VSB 1/2 WCI  23
BOSCOBEL       CLOUDY    35  32  88 S8        29.93F FOG     WCI  29
6HR MIN TEMP:  34; 6HR MAX TEMP:  36;

PRAIRIE DU CHI CLOUDY    35  32  88 E3        29.92F FOG
PLATTEVILLE    CLOUDY    33  32  96 S9        29.96F VSB 1/4 WCI  25
$$

WIZ056-057-062-063-064-067-068-221300-
SOUTH CENTRAL WISCONSIN

CITY           SKY/WX    TMP DP  RH WIND       PRES   REMARKS
REEDSBURG      CLOUDY    32  31  96 SW10      29.92S FOG     WCI  24
BARABOO/DELLS  CLOUDY    32  32  98 SW14      29.92S FOG     WCI  22
LONE ROCK      NOT AVBL
MINERAL POINT  FOG       34  32  93 S8        29.94F VSB 1/4 WCI  27
MADISON        DRIZZLE   33  31  92 SW5       29.96F FOG     WCI  29
6HR MIN TEMP:  30; 6HR MAX TEMP:  33; 6HR PCP:  0.01;

MIDDLETON      CLOUDY    34  33  96 SW12      29.95F WCI  26
WATERTOWN      CLOUDY    32  32 100 SW9       29.96F FOG     WCI  24
MONROE         FOG       32  32 100 S16       29.96F VSB 1/2 WCI  21
JANESVILLE     NOT AVBL
$$

WIZ051-052-058>065-066-070>072-221300-
SOUTHEAST WISCONSIN

CITY           SKY/WX    TMP DP  RH WIND       PRES   REMARKS
MILWAUKEE      CLOUDY    34  31  88 SW14      29.99S WCI  25
6HR MIN TEMP:  33; 6HR MAX TEMP:  35; 6HR PCP:  0.10;

WAUKESHA       CLOUDY    32  30  93 SW9       29.98F FOG     WCI  24
MILWAUKEE/TIMM CLOUDY    34  30  86 SW13G18   29.98F WCI  25
RACINE         CLOUDY    35  32  88 SW13G22   30.01S WCI  26
6HR MIN TEMP:  33; 6HR MAX TEMP:  36; 6HR PCP:  0.11;

BURLINGTON     CLOUDY    32  32  99 SW15      29.99F FOG     WCI  22
KENOSHA        CLOUDY    35  33  92 SW12      30.00F FOG     WCI  27
6HR MIN TEMP:  33; 6HR MAX TEMP:  36; 6HR PCP:  0.09;

FOND DU LAC    CLOUDY    33  29  85 SW16G23   29.91F WCI  23
6HR MIN TEMP:  31; 6HR MAX TEMP:  33;

SHEBOYGAN      CLOUDY    34  29  82 SW16      29.93F WCI  24
6HR MIN TEMP:  31; 6HR MAX TEMP:  34;

WEST BEND      CLOUDY    32  30  93 SW15      29.95F WCI  22
JUNEAU         CLOUDY    32  30  94 S16       29.96F FOG     WCI  21
$$

LSZ147-162-221300-
LAKE SUPERIOR

STATION/POSITION TIME  TEMP    WIND        PRES    WAVE
                       AIR SEA DIR/SP/G            HT/PER
                 (UTC) (F)     (DEG/KT/KT) (MB)    (FT/S)
DEVILS ISLAND    1100   35     240/ 23/ 28 1006.0F
PORT WING        1100   34     200/  9/ 15 1006.4
SAXON HARBOR     1020   34     200/  5/ 23 1007.1S
$$

LMZ867-665-643>646-221300-
LAKE MICHIGAN

STATION/POSITION TIME  TEMP    WIND        PRES    WAVE
                       AIR SEA DIR/SP/G            HT/PER
                 (UTC) (F)     (DEG/KT/KT) (MB)    (FT/S)
CHAMBERS ISLAND  1100   34     190/ 13/ 21 1011.5F
N MID LAKE BUOY  1050   38 42  220/ 27/ 31 1011.9F  12/ 9
NORTHPORT PIER   1116   34     200/  6/ 18 1011.2F
SISTER BAY       1128          260/ 15/ 18   N/A
ALGOMA LAKESHORE 1128          250/ 14/ 20   N/A
KEWAUNEE LAKESHO 1100   34     230/ 11/ 16 1012.0F
SHEBOYGAN LAKESH 1100   34 35  210/ 14/ 17 1015.1F
PORT WASHINGTON  1100   34     200/  5/ 12 1015.6F
ATWATER BUOY     1100   34      40/  2/ 10 1016.7F
MILWAUKEE LAKESH 1100   34     230/ 15/ 17   N/A
S MID LAKE BUOY  1050   38 43  210/ 23/ 29 1017.7F   7/ 7
KENOSHA   LAKESH 1100   35     210/ 12/ 16 1016.6F
$$

TC  - TEMPERATURE IN CELSIUS
VSB - VISIBILITY IN STATUTE MILES
WCI - WIND CHILL INDEX
HX  - HEAT INDEX



USA.gov is the U.S. government's official web portal to all federal, state and local government web resources and services.